Date String (YYYY-MM-DD hh:mm:ss) UTC,Instrument flags,Ambient pressure (hPa),Sample flow (lpm),Bypass flow (lpm),Sample temperature (°C),Ambient temperature (°C),ASC tube jacket temperature (°C),LED temperature (°C),Box temperature (°C),Sample RH (%),Span deviation,Mass concentration (μg/m³),Mass concentration (μg/m³),Mass concentration (μg/m³)
DateTimeUTC,F1_M11,P_M11,Q1_M11,Q2_M11,T1_M11,T2_M11,T3_M11,T4_M11,T5_M11,U1_M11,ZSPAN_M11,X0_M11,X2_M11,X1_M11
2022-01-15 18:00:00,,0832.7,5.00,0.00,21.7,21.3,00.0,30.7,23.5,10.6,0000.0,0008.68,0003.87,0003.28
2022-01-15 18:01:00,,0832.7,5.00,0.00,21.8,21.3,00.0,30.7,23.5,10.6,0000.0,0008.96,0003.85,0003.28
2022-01-15 18:02:00,,0832.7,5.00,0.00,21.8,21.4,00.0,30.8,23.5,10.4,0000.0,0009.04,0003.84,0003.28
2022-01-15 18:03:00,,0832.7,5.00,0.00,21.8,21.4,00.0,30.8,23.5,10.2,0000.0,0009.34,0003.84,0003.28
2022-01-15 18:04:00,,0832.7,5.00,0.00,21.8,21.4,00.0,30.8,23.6,10.4,0000.0,0008.83,0003.82,0003.27
2022-01-15 18:05:00,,0832.7,4.99,0.00,21.8,21.4,00.0,30.8,23.6,10.4,0000.0,0008.90,0003.81,0003.27
2022-01-15 18:06:00,,0832.7,5.00,0.00,21.8,21.3,00.0,30.8,23.6,10.3,0000.0,0009.11,0003.81,0003.26
2022-01-15 18:07:00,,0832.6,5.01,0.00,21.8,21.3,00.0,30.8,23.6,10.3,0000.0,0009.02,0003.80,0003.26
2022-01-15 18:08:00,,0832.5,5.01,0.00,21.8,21.4,00.0,30.8,23.6,10.2,0000.0,0008.92,0003.76,0003.26
2022-01-15 18:09:00,,0832.5,5.01,0.00,21.9,21.4,00.0,30.8,23.6,10.5,0000.0,0008.80,0003.77,0003.26
2022-01-15 18:10:00,,0832.5,5.00,0.00,21.9,21.4,00.0,30.8,23.6,10.3,0000.0,0008.64,0003.74,0003.27
2022-01-15 18:11:00,,0832.6,5.00,0.00,21.9,21.4,00.0,30.8,23.6,10.2,0000.0,0008.46,0003.76,0003.28
2022-01-15 18:12:00,,0832.6,5.00,0.00,21.9,21.4,00.0,30.8,23.6,10.1,0000.0,0008.00,0003.74,0003.27
2022-01-15 18:13:00,,0832.5,5.00,0.00,21.9,21.4,00.0,30.8,23.6,10.1,0000.0,0007.74,0003.70,0003.26
2022-01-15 18:14:00,,0832.5,5.00,0.00,21.9,21.4,00.0,30.8,23.7,10.3,0000.0,0008.00,0003.70,0003.27
2022-01-15 18:15:00,,0832.4,5.00,0.00,21.9,21.5,00.0,30.8,23.7,10.3,0000.0,0008.17,0003.74,0003.28
2022-01-15 18:16:00,,0832.4,4.99,0.00,21.9,21.5,00.0,30.9,23.7,10.1,0000.0,0008.10,0003.75,0003.28
2022-01-15 18:17:00,,0832.5,4.99,0.00,22.0,21.5,00.0,30.9,23.7,10.2,0000.0,0007.94,0003.76,0003.28
2022-01-15 18:18:00,,0832.5,5.01,0.00,22.0,21.5,00.0,30.9,23.7,10.4,0000.0,0008.02,0003.78,0003.29
2022-01-15 18:19:00,,0832.5,5.00,0.00,22.0,21.5,00.0,30.9,23.8,10.5,0000.0,0008.47,0003.80,0003.29
2022-01-15 18:20:00,,0832.5,5.00,0.00,22.0,21.5,00.0,30.9,23.8,10.4,0000.0,0008.38,0003.79,0003.29
2022-01-15 18:21:00,,0832.4,5.01,0.00,22.0,21.6,00.0,30.9,23.7,10.3,0000.0,0008.19,0003.79,0003.28
2022-01-15 18:22:00,,0832.5,5.00,0.00,22.0,21.6,00.0,30.9,23.8,10.2,0000.0,0008.97,0003.76,0003.28
2022-01-15 18:23:00,,0832.4,5.00,0.00,22.0,21.6,00.0,30.9,23.8,10.0,0000.0,0009.05,0003.74,0003.30
2022-01-15 18:24:00,,0832.3,5.00,0.00,22.1,21.6,00.0,31.0,23.8,09.8,0000.0,0008.97,0003.73,0003.29
2022-01-15 18:25:00,,0832.3,5.00,0.00,22.1,21.6,00.0,31.0,23.8,09.8,0000.0,0008.94,0003.72,0003.29
2022-01-15 18:26:00,,0832.3,5.00,0.00,22.1,21.6,00.0,31.0,23.8,09.8,0000.0,0009.33,0003.69,0003.28
2022-01-15 18:27:00,,0832.3,5.00,0.00,22.1,21.7,00.0,31.0,23.9,10.0,0000.0,0009.28,0003.69,0003.28
2022-01-15 18:28:00,,0832.3,5.00,0.00,22.1,21.7,00.0,31.0,23.9,10.1,0000.0,0009.26,0003.68,0003.29
2022-01-15 18:29:00,,0832.3,5.00,0.00,22.1,21.7,00.0,31.0,23.9,10.1,0000.0,0009.08,0003.64,0003.29
2022-01-15 18:30:00,,0832.2,5.00,0.00,22.2,21.7,00.0,31.0,24.0,09.9,0000.0,0008.62,0003.62,0003.28
2022-01-15 18:31:00,,0832.1,5.00,0.00,22.2,21.7,00.0,31.0,24.0,09.9,0000.0,0008.50,0003.59,0003.27
2022-01-15 18:32:00,,0832.1,4.99,0.00,22.2,21.7,00.0,31.1,24.0,09.8,0000.0,0008.96,0003.58,0003.26
2022-01-15 18:33:00,,0832.1,5.00,0.00,22.2,21.8,00.0,31.1,24.0,09.9,0000.0,0008.40,0003.62,0003.26
2022-01-15 18:34:00,,0832.0,5.01,0.00,22.2,21.8,00.0,31.1,24.0,09.9,0000.0,0008.22,0003.60,0003.24
2022-01-15 18:35:00,,0832.1,5.00,0.00,22.3,21.8,00.0,31.1,24.1,10.0,0000.0,0008.13,0003.58,0003.25
2022-01-15 18:36:00,,0832.0,4.99,0.00,22.3,21.8,00.0,31.1,24.1,09.8,0000.0,0007.88,0003.58,0003.24
2022-01-15 18:37:00,,0832.0,5.00,0.00,22.3,21.8,00.0,31.2,24.1,09.8,0000.0,0007.51,0003.59,0003.24
2022-01-15 18:38:00,,0831.9,5.00,0.00,22.3,21.8,00.0,31.2,24.1,09.9,0000.0,0007.77,0003.59,0003.23
2022-01-15 18:39:00,,0831.9,5.00,0.00,22.3,21.8,00.0,31.2,24.1,09.8,0000.0,0007.73,0003.57,0003.22
2022-01-15 18:40:00,,0832.0,5.01,0.00,22.4,21.9,00.0,31.2,24.1,10.0,0000.0,0008.26,0003.59,0003.22
2022-01-15 18:41:00,,0832.0,5.00,0.00,22.4,21.9,00.0,31.2,24.2,10.0,0000.0,0008.47,0003.58,0003.23
2022-01-15 18:42:00,,0832.0,4.99,0.00,22.4,21.9,00.0,31.2,24.2,09.8,0000.0,0008.95,0003.57,0003.22
2022-01-15 18:43:00,,0831.8,5.00,0.00,22.4,21.9,00.0,31.3,24.2,09.7,0000.0,0008.82,0003.55,0003.22
2022-01-15 18:44:00,,0831.8,5.01,0.00,22.4,21.9,00.0,31.3,24.2,09.9,0000.0,0008.64,0003.51,0003.22
2022-01-15 18:45:00,,0831.9,4.99,0.00,22.4,21.9,00.0,31.3,24.2,09.8,0000.0,0008.95,0003.52,0003.21
2022-01-15 18:46:00,,0831.9,5.01,0.00,22.4,21.9,00.0,31.3,24.3,09.8,0000.0,0009.64,0003.54,0003.20
2022-01-15 18:47:00,,0831.9,4.99,0.00,22.5,21.9,00.0,31.3,24.3,09.9,0000.0,0009.40,0003.53,0003.19
2022-01-15 18:48:00,,0831.8,5.02,0.00,22.5,21.9,00.0,31.3,24.3,10.0,0000.0,0009.15,0003.51,0003.18
2022-01-15 18:49:00,,0831.7,5.00,0.00,22.5,22.0,00.0,31.3,24.3,09.9,0000.0,0008.98,0003.49,0003.18
2022-01-15 18:50:00,,0831.6,5.01,0.00,22.5,22.0,00.0,31.4,24.3,09.9,0000.0,0008.97,0003.47,0003.17
2022-01-15 18:51:00,,0831.6,4.99,0.00,22.6,22.0,00.0,31.4,24.4,10.0,0000.0,0008.60,0003.44,0003.15
2022-01-15 18:52:00,,0831.7,4.99,0.00,22.6,22.0,00.0,31.4,24.4,09.9,0000.0,0008.19,0003.41,0003.14
2022-01-15 18:53:00,,0831.6,5.00,0.00,22.6,22.0,00.0,31.4,24.4,09.9,0000.0,0007.96,0003.40,0003.13
2022-01-15 18:54:00,,0831.5,5.00,0.00,22.6,22.0,00.0,31.4,24.4,09.8,0000.0,0007.07,0003.39,0003.12
2022-01-15 18:55:00,,0831.6,5.01,0.00,22.6,22.0,00.0,31.5,24.4,09.8,0000.0,0006.80,0003.38,0003.12
2022-01-15 18:56:00,,0831.4,4.99,0.00,22.6,22.0,00.0,31.5,24.4,09.9,0000.0,0006.37,0003.36,0003.12
2022-01-15 18:57:00,,0831.4,4.99,0.00,22.6,22.0,00.0,31.5,24.4,10.0,0000.0,0005.63,0003.37,0003.13
2022-01-15 18:58:00,,0831.4,5.01,0.00,22.6,22.1,00.0,31.5,24.4,09.8,0000.0,0004.80,0003.35,0003.13
2022-01-15 18:59:00,,0831.4,4.99,0.00,22.6,22.1,00.0,31.5,24.4,09.8,0000.0,0006.02,0003.34,0003.13
